User: anonymous   Login
Location: Downe
(51.3167°N, 0.0500°E)
Time: 23:58:52
(UTC+00:00)
Language:

Cosmos 1238 Rocket - Orbit

View from above orbital plane
View from above orbital plane
View from above satellite
View from above satellite

Ground track
Ground track

The orbit data is extracted from the following two-line orbital elements,

1 12139U 81003B   20028.59224912 +.00001331 +00000-0 +62387-4 0  9992
2 12139 082.9455 079.5385 0463441 322.8307 034.1614 14.56785862985941
Epoch (UTC): 28 January 2020 14:12:50
Eccentricity: 0.0463441
inclination: 82.9455°
perigee height: 375 km
apogee height: 1032 km
right ascension of ascending node: 79.5385°
argument of perigee: 322.8307°
revolutions per day: 14.56785862
mean anomaly at epoch: 34.1614°
orbit number at epoch: 98594

The dashed part of the orbit path shows where the satellite is in the earth's shadow,  

DLR